CW6490 Weather Reports


Display with metric or nautical units.
time (UTC)temp
F
wind
direction
speed
MPH
gust
MPH
rain 1hr
in
rain 24hr
in
rain mn
in
humidity
%
barometer
mb
20260504043831 82 85 4.0 13.0 0.00 0.00 0.00 25 1010.4
20260504042825 82 213 5.0 11.0 0.00 0.00 0.00 24 1010.4
20260504041839 83 183 4.0 10.0 0.00 0.00 0.00 24 1010.0
20260504040814 83 208 4.0 14.0 0.00 0.00 0.00 24 1009.8
20260504035829 84 175 6.0 15.0 0.00 0.00 0.00 24 1009.7
20260504034821 84 208 7.0 15.0 0.00 0.00 0.00 23 1009.4
20260504033815 84 200 5.0 14.0 0.00 0.00 0.00 22 1009.2
20260504032827 84 183 4.0 12.0 0.00 0.00 0.00 22 1008.8
20260504031824 85 203 4.0 14.0 0.00 0.00 0.00 21 1008.6
20260504030819 85 185 5.0 15.0 0.00 0.00 0.00 20 1008.4
20260504025814 86 208 6.0 11.0 0.00 0.00 0.00 20 1008.3
20260504024826 86 215 7.0 18.0 0.00 0.00 0.00 19 1007.8
20260504023821 87 174 10.0 23.0 0.00 0.00 0.00 19 1007.7
20260504022817 87 208 7.0 14.0 0.00 0.00 0.00 18 1007.8
20260504021851 88 204 6.0 17.0 0.00 0.00 0.00 18 1007.4
20260504020826 88 199 7.0 15.0 0.00 0.00 0.00 18 1007.4
20260504015819 89 169 7.0 17.0 0.00 0.00 0.00 18 1006.9
20260504014834 90 228 7.0 17.0 0.00 0.00 0.00 17 1006.9
20260504013827 91 220 6.0 15.0 0.00 0.00 0.00 15 1006.6
20260504012825 92 152 5.0 12.0 0.00 0.00 0.00 15 1006.5
20260504011817 92 212 7.0 16.0 0.00 0.00 0.00 15 1006.6
20260504010852 93 248 7.0 11.0 0.00 0.00 0.00 14 1006.6
20260504005823 94 162 6.0 14.0 0.00 0.00 0.00 15 1006.5
20260504004817 94 181 6.0 15.0 0.00 0.00 0.00 14 1006.6
20260504003817 95 202 7.0 15.0 0.00 0.00 0.00 14 1006.6
20260504002831 95 173 6.0 17.0 0.00 0.00 0.00 14 1006.5
20260504001825 95 235 6.0 12.0 0.00 0.00 0.00 14 1006.5
20260504000819 95 213 7.0 17.0 0.00 0.00 0.00 15 1006.5
20260503235813 96 178 7.0 14.0 0.00 0.00 0.00 15 1006.5
20260503234830 96 148 6.0 13.0 0.00 0.00 0.00 15 1006.5
20260503233823 96 164 4.0 13.0 0.00 0.00 0.00 15 1006.5
20260503232818 96 182 3.0 11.0 0.00 0.00 0.00 14 1006.6
20260503231835 96 220 2.0 9.0 0.00 0.00 0.00 15 1006.7
20260503230827 96 211 4.0 9.0 0.00 0.00 0.00 15 1006.7
20260503225825 95 227 2.0 9.0 0.00 0.00 0.00 16 1006.9
20260503224816 95 152 5.0 18.0 0.00 0.00 0.00 16 1007.2
20260503223829 95 158 2.0 14.0 0.00 0.00 0.00 15 1007.4
20260503222824 95 222 2.0 14.0 0.00 0.00 0.00 16 1007.6
20260503221819 95 191 3.0 13.0 0.00 0.00 0.00 16 1007.7
20260503220818 95 242 2.0 14.0 0.00 0.00 0.00 16 1007.9
20260503215831 95 190 4.0 14.0 0.00 0.00 0.00 16 1008.1
20260503214824 95 195 7.0 13.0 0.00 0.00 0.00 16 1008.4
20260503213819 95 173 7.0 14.0 0.00 0.00 0.00 17 1008.5
20260503212814 94 168 6.0 12.0 0.00 0.00 0.00 17 1008.6
20260503211812 94 206 6.0 13.0 0.00 0.00 0.00 18 1008.8
20260503210828 94 195 5.0 11.0 0.00 0.00 0.00 18 1008.9
20260503205822 94 166 8.0 15.0 0.00 0.00 0.00 18 1009.3
20260503204817 94 156 7.0 12.0 0.00 0.00 0.00 18 1009.5
20260503203830 93 120 3.0 12.0 0.00 0.00 0.00 18 1009.5
20260503202847 94 193 2.0 10.0 0.00 0.00 0.00 18 1009.7
20260503201845 94 150 5.0 13.0 0.00 0.00 0.00 18 1009.8
20260503200839 94 142 5.0 9.0 0.00 0.00 0.00 19 1009.8
20260503195812 93 52 1.0 11.0 0.00 0.00 0.00 20 1010.0
20260503194826 93 164 5.0 12.0 0.00 0.00 0.00 20 1010.1
20260503193821 92 174 3.0 10.0 0.00 0.00 0.00 20 1010.3
20260503192819 92 206 5.0 11.0 0.00 0.00 0.00 21 1010.4
20260503191832 92 91 5.0 13.0 0.00 0.00 0.00 23 1010.5
20260503190825 92 114 4.0 11.0 0.00 0.00 0.00 24 1010.7
20260503185819 91 154 3.0 9.0 0.00 0.00 0.00 24 1010.7
20260503184814 90 88 2.0 8.0 0.00 0.00 0.00 26 1010.8
20260503183813 89 155 2.0 8.0 0.00 0.00 0.00 27 1011.1
20260503182826 89 93 5.0 9.0 0.00 0.00 0.00 25 1011.3
20260503181821 89 115 3.0 10.0 0.00 0.00 0.00 25 1011.5
20260503180836 89 51 6.0 11.0 0.00 0.00 0.00 25 1011.6
20260503175850 88 116 5.0 12.0 0.00 0.00 0.00 25 1011.7
20260503174823 88 135 5.0 10.0 0.00 0.00 0.00 26 1011.8
20260503173821 88 180 6.0 11.0 0.00 0.00 0.00 26 1011.9
20260503172813 87 86 4.0 11.0 0.00 0.00 0.00 26 1011.9
20260503171829 87 71 4.0 14.0 0.00 0.00 0.00 26 1011.9
20260503170822 87 52 5.0 15.0 0.00 0.00 0.00 27 1012.1
20260503150840 81 87 3.0 9.0 0.00 0.00 0.00 33 1012.2
20260503130822 77 85 2.0 7.0 0.00 0.00 0.00 34 1011.6
20260503080823 78 47 1.0 3.0 0.00 0.00 0.00 26 1011.4
20260503072813 79 50 0.0 0.0 0.00 0.00 0.00 26 1011.4
20260503071851 79 51 0.0 1.0 0.00 0.00 0.00 26 1011.3
20260503070823 79 75 0.0 0.0 0.00 0.00 0.00 25 1011.4
20260503054833 81 58 0.0 2.0 0.00 0.00 0.00 24 1011.1
20260503053826 81 54 1.0 4.0 0.00 0.00 0.00 23 1011.0
20260503052823 81 58 1.0 4.0 0.00 0.00 0.00 23 1011.0
20260503051815 82 80 1.0 3.0 0.00 0.00 0.00 22 1011.1
20260503050828 83 59 1.0 2.0 0.00 0.00 0.00 22 1011.0
20260503045820 83 27 0.0 1.0 0.00 0.00 0.00 21 1010.9
20260503044853 83 18 0.0 2.0 0.00 0.00 0.00 21 1010.7